| time (UTC) | temp F | wind direction | speed MPH | gust MPH | rain 1hr in | rain 24hr in | rain mn in | humidity % | barometer mb |
| 20260507063052 | 52 | 0 | 0.0 | 2.0 | 0.00 | 0.00 | 0.00 | 82 | 1020.7 |
| 20260507061550 | 52 | 0 | 0.0 | 6.0 | 0.00 | 0.00 | 0.00 | 83 | 1020.7 |
| 20260507060058 | 52 | 42 | 0.0 | 3.0 | 0.00 | 0.00 | 0.00 | 83 | 1020.8 |
| 20260507054601 | 52 | 35 | 0.0 | 7.0 | 0.00 | 0.00 | 0.00 | 84 | 1020.7 |
| 20260507053057 | 53 | 0 | 0.0 | 2.0 | 0.00 | 0.00 | 0.00 | 85 | 1020.5 |
| 20260507051551 | 53 | 14 | 0.0 | 3.0 | 0.00 | 0.00 | 0.00 | 84 | 1020.5 |
| 20260507050056 | 53 | 44 | 0.0 | 5.0 | 0.00 | 0.00 | 0.00 | 84 | 1020.6 |
| 20260507044601 | 54 | 0 | 0.0 | 3.0 | 0.00 | 0.00 | 0.00 | 83 | 1020.6 |
| 20260507043051 | 54 | 0 | 0.0 | 5.0 | 0.00 | 0.00 | 0.00 | 83 | 1020.5 |
| 20260507041551 | 54 | 0 | 0.0 | 3.0 | 0.00 | 0.00 | 0.00 | 83 | 1020.4 |
| 20260507040054 | 54 | 0 | 0.0 | 4.0 | 0.00 | 0.00 | 0.00 | 83 | 1020.3 |
| 20260507034556 | 54 | 42 | 0.0 | 7.0 | 0.00 | 0.00 | 0.00 | 82 | 1020.2 |
| 20260507033054 | 55 | 5 | 1.0 | 6.0 | 0.00 | 0.00 | 0.00 | 82 | 1020.0 |
| 20260507031551 | 55 | 325 | 0.0 | 5.0 | 0.00 | 0.00 | 0.00 | 82 | 1019.7 |
| 20260507030101 | 56 | 0 | 0.0 | 7.0 | 0.00 | 0.00 | 0.00 | 82 | 1019.7 |
| 20260507024558 | 56 | 238 | 1.0 | 8.0 | 0.00 | 0.00 | 0.00 | 81 | 1019.5 |
| 20260507023053 | 56 | 42 | 1.0 | 6.0 | 0.00 | 0.00 | 0.00 | 81 | 1019.5 |
| 20260507021551 | 57 | 352 | 0.0 | 3.0 | 0.00 | 0.00 | 0.00 | 81 | 1019.5 |
| 20260507020052 | 57 | 360 | 1.0 | 4.0 | 0.00 | 0.00 | 0.00 | 80 | 1019.4 |
| 20260507014556 | 58 | 37 | 1.0 | 3.0 | 0.00 | 0.00 | 0.00 | 79 | 1019.5 |
| 20260507013059 | 59 | 348 | 1.0 | 7.0 | 0.00 | 0.00 | 0.00 | 78 | 1019.7 |
| 20260507011556 | 60 | 271 | 1.0 | 6.0 | 0.00 | 0.00 | 0.00 | 76 | 1019.9 |
| 20260507010054 | 60 | 311 | 1.0 | 5.0 | 0.00 | 0.00 | 0.00 | 76 | 1019.8 |
| 20260507004556 | 61 | 32 | 2.0 | 8.0 | 0.00 | 0.00 | 0.00 | 75 | 1019.7 |
| 20260507003055 | 62 | 42 | 1.0 | 7.0 | 0.00 | 0.00 | 0.00 | 75 | 1019.7 |
| 20260507001554 | 62 | 96 | 1.0 | 6.0 | 0.00 | 0.00 | 0.00 | 74 | 1019.4 |
| 20260507000056 | 63 | 40 | 1.0 | 8.0 | 0.00 | 0.00 | 0.00 | 76 | 1019.5 |
| 20260506234555 | 64 | 0 | 0.0 | 3.0 | 0.00 | 0.00 | 0.00 | 74 | 1019.5 |
| 20260506233056 | 64 | 242 | 1.0 | 4.0 | 0.00 | 0.00 | 0.00 | 75 | 1019.4 |
| 20260506231558 | 64 | 37 | 0.0 | 6.0 | 0.00 | 0.00 | 0.00 | 76 | 1019.6 |
| 20260506230056 | 64 | 0 | 0.0 | 3.0 | 0.00 | 0.00 | 0.00 | 77 | 1019.6 |
| 20260506224603 | 64 | 0 | 0.0 | 2.0 | 0.00 | 0.00 | 0.00 | 76 | 1019.7 |
| 20260506223049 | 66 | 9 | 1.0 | 4.0 | 0.00 | 0.00 | 0.00 | 69 | 1019.8 |
| 20260506221553 | 64 | 79 | 1.0 | 4.0 | 0.00 | 0.00 | 0.00 | 76 | 1020.0 |
| 20260506220052 | 64 | 297 | 1.0 | 3.0 | 0.00 | 0.00 | 0.00 | 74 | 1020.0 |
| 20260506214607 | 62 | 67 | 0.0 | 3.0 | 0.00 | 0.00 | 0.00 | 76 | 1020.0 |
| 20260506213054 | 63 | 0 | 0.0 | 5.0 | 0.00 | 0.00 | 0.00 | 74 | 1020.0 |
| 20260506211556 | 63 | 15 | 1.0 | 4.0 | 0.00 | 0.00 | 0.00 | 79 | 1020.1 |
| 20260506210055 | 62 | 125 | 0.0 | 4.0 | 0.00 | 0.00 | 0.00 | 74 | 1020.3 |
| 20260506204615 | 62 | 115 | 1.0 | 3.0 | 0.00 | 0.00 | 0.00 | 74 | 1020.3 |
| 20260506203052 | 62 | 173 | 1.0 | 3.0 | 0.00 | 0.00 | 0.00 | 77 | 1020.3 |
| 20260506201552 | 60 | 311 | 1.0 | 5.0 | 0.00 | 0.00 | 0.00 | 78 | 1020.2 |
| 20260506200051 | 61 | 157 | 1.0 | 4.0 | 0.00 | 0.00 | 0.00 | 78 | 1020.2 |
| 20260506194604 | 61 | 171 | 0.0 | 3.0 | 0.00 | 0.00 | 0.00 | 82 | 1020.3 |
| 20260506193057 | 58 | 279 | 0.0 | 2.0 | 0.00 | 0.00 | 0.00 | 85 | 1020.5 |
| 20260506191553 | 58 | 82 | 0.0 | 2.0 | 0.00 | 0.00 | 0.00 | 84 | 1020.5 |
| 20260506190052 | 57 | 0 | 0.0 | 2.0 | 0.00 | 0.00 | 0.00 | 85 | 1020.4 |
| 20260506184556 | 57 | 0 | 1.0 | 4.0 | 0.00 | 0.00 | 0.00 | 85 | 1020.3 |
| 20260506183100 | 57 | 0 | 0.0 | 3.0 | 0.00 | 0.00 | 0.00 | 86 | 1020.3 |
| 20260506181551 | 56 | 120 | 1.0 | 3.0 | 0.00 | 0.00 | 0.00 | 87 | 1020.2 |
| 20260506180055 | 56 | 0 | 0.0 | 2.0 | 0.00 | 0.00 | 0.00 | 87 | 1020.2 |
| 20260506174553 | 56 | 133 | 0.0 | 3.0 | 0.00 | 0.00 | 0.00 | 88 | 1020.2 |
| 20260506173051 | 55 | 115 | 0.0 | 3.0 | 0.00 | 0.00 | 0.00 | 88 | 1020.1 |
| 20260506171559 | 55 | 130 | 0.0 | 2.0 | 0.00 | 0.00 | 0.00 | 88 | 1020.1 |
| 20260506164558 | 55 | 0 | 0.0 | 1.0 | 0.00 | 0.00 | 0.00 | 89 | 1020.0 |
| 20260506163103 | 54 | 0 | 0.0 | 2.0 | 0.00 | 0.00 | 0.00 | 88 | 1020.0 |
| 20260506161604 | 55 | 0 | 0.0 | 2.0 | 0.00 | 0.00 | 0.00 | 88 | 1020.1 |
| 20260506160053 | 54 | 0 | 0.0 | 2.0 | 0.00 | 0.00 | 0.00 | 89 | 1019.6 |
| 20260506154610 | 54 | 182 | 0.0 | 2.0 | 0.00 | 0.00 | 0.00 | 90 | 1019.4 |
| 20260506153051 | 54 | 126 | 0.0 | 2.0 | 0.00 | 0.00 | 0.00 | 90 | 1019.2 |
| 20260506151555 | 53 | 0 | 0.0 | 1.0 | 0.00 | 0.00 | 0.00 | 91 | 1019.7 |
| 20260506150056 | 53 | 57 | 0.0 | 1.0 | 0.00 | 0.00 | 0.00 | 91 | 1019.9 |
| 20260506144600 | 53 | 0 | 0.0 | 2.0 | 0.00 | 0.01 | 0.00 | 91 | 1019.9 |
| 20260506143055 | 53 | 0 | 0.0 | 1.0 | 0.00 | 0.01 | 0.00 | 91 | 1019.6 |
| 20260506141550 | 53 | 0 | 0.0 | 3.0 | 0.00 | 0.01 | 0.00 | 91 | 1019.4 |
| 20260506140058 | 53 | 0 | 0.0 | 2.0 | 0.00 | 0.01 | 0.00 | 91 | 1019.1 |
| 20260506134552 | 53 | 0 | 0.0 | 3.0 | 0.00 | 0.01 | 0.00 | 91 | 1019.0 |
| 20260506133103 | 53 | 0 | 0.0 | 1.0 | 0.00 | 0.01 | 0.00 | 91 | 1018.9 |
| 20260506131556 | 53 | 0 | 0.0 | 2.0 | 0.00 | 0.01 | 0.00 | 91 | 1018.8 |
| 20260506130053 | 53 | 0 | 0.0 | 1.0 | 0.00 | 0.01 | 0.00 | 91 | 1018.6 |
| 20260506124554 | 54 | 101 | 0.0 | 1.0 | 0.00 | 0.01 | 0.00 | 91 | 1018.5 |
| 20260506123054 | 53 | 0 | 0.0 | 1.0 | 0.00 | 0.01 | 0.00 | 91 | 1018.3 |
| 20260506121553 | 53 | 0 | 0.0 | 1.0 | 0.00 | 0.01 | 0.00 | 92 | 1018.5 |
| 20260506120052 | 53 | 0 | 0.0 | 1.0 | 0.00 | 0.01 | 0.00 | 91 | 1018.5 |
| 20260506114558 | 53 | 0 | 0.0 | 1.0 | 0.00 | 0.01 | 0.00 | 92 | 1018.3 |
| 20260506113053 | 53 | 0 | 0.0 | 1.0 | 0.00 | 0.01 | 0.00 | 91 | 1018.1 |
| 20260506111552 | 53 | 0 | 0.0 | 1.0 | 0.00 | 0.01 | 0.00 | 90 | 1017.9 |
| 20260506110053 | 53 | 0 | 0.0 | 1.0 | 0.00 | 0.01 | 0.00 | 90 | 1017.7 |
| 20260506104556 | 54 | 0 | 0.0 | 1.0 | 0.00 | 0.01 | 0.00 | 90 | 1017.6 |
| 20260506103058 | 54 | 0 | 0.0 | 1.0 | 0.00 | 0.01 | 0.00 | 89 | 1017.5 |
| 20260506101552 | 54 | 0 | 0.0 | 2.0 | 0.00 | 0.01 | 0.00 | 90 | 1017.3 |
| 20260506100051 | 54 | 0 | 0.0 | 1.0 | 0.00 | 0.01 | 0.00 | 90 | 1017.2 |
| 20260506094551 | 54 | 0 | 0.0 | 4.0 | 0.00 | 0.01 | 0.00 | 89 | 1017.1 |
| 20260506093051 | 54 | 0 | 0.0 | 3.0 | 0.00 | 0.01 | 0.00 | 89 | 1017.0 |
| 20260506091554 | 54 | 0 | 0.0 | 2.0 | 0.00 | 0.01 | 0.00 | 89 | 1017.1 |
| 20260506090050 | 54 | 320 | 0.0 | 3.0 | 0.00 | 0.01 | 0.00 | 88 | 1016.9 |
| 20260506084553 | 55 | 0 | 0.0 | 1.0 | 0.00 | 0.01 | 0.00 | 88 | 1016.8 |
| 20260506083052 | 55 | 0 | 0.0 | 2.0 | 0.00 | 0.01 | 0.00 | 87 | 1016.9 |
| 20260506081552 | 55 | 0 | 0.0 | 0.0 | 0.00 | 0.01 | 0.00 | 87 | 1016.9 |
| 20260506073058 | 56 | 0 | 0.0 | 1.0 | 0.00 | 0.01 | 0.00 | 86 | 1016.5 |
| 20260506071557 | 56 | 0 | 0.0 | 2.0 | 0.00 | 0.01 | 0.00 | 86 | 1016.5 |